Regional Weather Roundup
Issued by NWS Goodland, KS

Home | Current Version | Previous Version | Graphics & Text | Print | Product List | Glossary On
Versions: 1 2 3 4 5 6 7 8 9 10 11 12 13 14 15 16 17 18 19 20 21 22 23 24 25 26 27 28 29 30 31 32 33 34 35 36 37 38 39 40 41 42 43 44 45 46 47 48 49 50
000
ASUS43 KGLD 102208
RWRGLD

GOODLAND FORECAST AREA HOURLY WEATHER ROUNDUP
NATIONAL WEATHER SERVICE GOODLAND KS
300 PM MST SUN DEC 10 2017

...OFFICIAL OBSERVATIONS...

CITY           SKY/WX    TMP DP  RH WIND       PRES   REMARKS
GOODLAND KS    SUNNY     62   1   8 NW9       30.28F
HILL CITY KS   SUNNY     67  15  13 W12       30.23S
IMPERIAL NEB   SUNNY     63   3   9 W13       30.25S
MCCOOK NEB     SUNNY     64   8  11 W13       30.22S
AKRON CO       SUNNY     58  -6   7 W12       30.31F
BURLINGTON CO  SUNNY     61   0   8 NW15      30.32F
LIMON CO       SUNNY     58  -8   6 S9        30.34F
$$

...UNOFFICIAL OBSERVATIONS...

CITY           SKY/WX    TMP DP  RH WIND       PRES   REMARKS
COLBY KS       SUNNY     63  19  19 W8        30.27F
LENORA KS        N/A     64  32  30 W8          N/A
NORTON KS      SUNNY     63   1   8 W9        30.20
SHARON SPRINGS   N/A     62   5  10 NW8         N/A
TRIBUNE KS     SUNNY     64  10  12 NW8       30.32
TRENTON NEB      N/A     63  32  31 NW8         N/A
KIT CARSON CO    N/A     63   8  11 CALM        N/A
YUMA CO        FAIR      59   0   9 NW12      30.30S
$$



USA.gov is the U.S. government's official web portal to all federal, state and local government web resources and services.